Homestead AFB, FL

7:50 AM EST on January 24, 2018 (GMT -0500)
Dade County-Homestead Regional

Weather History for KHST - September, 2013

Change the Weather History Date:

Friday, September 13, 2013

  Actual Average Record
Temperature  
Mean Temperature 82 °F -  
Max Temperature 88 °F 89 °F 94 °F (1966)
Min Temperature 75 °F 72 °F 65 °F (1941)
Cooling Degree Days 16    
Growing Degree Days 32 (Base 50)    
Moisture  
Dew Point 75 °F    
Average Humidity 81    
Maximum Humidity 99    
Minimum Humidity 59    
Precipitation  
Precipitation 0.00 in - - ()
Sea Level Pressure  
Sea Level Pressure 29.88 in    
Wind  
Wind Speed 4 mph (ESE)    
Max Wind Speed 10 mph    
Max Gust Speed -    
Visibility 10 miles    
Events      
Averages and records for this station are not official NWS values.
T = Trace of Precipitation, MM = Missing Value Source: NWS Daily Summary

Daily Weather History Graph

Daily Weather History Graph

Search for Another Location

Airport or City:

Trip Planner

Search our weather history database for the weather conditions in past years. The results will help you decide how hot, cold, wet, or windy it might be!

Date:

Astronomy

Sep. 13, 2013 Rise Set
Actual Time 7:06 AM EDT 7:27 PM EDT
Civil Twilight 6:43 AM EDT 7:50 PM EDT
Nautical Twilight 6:16 AM EDT 8:17 PM EDT
Astronomical Twilight 5:49 AM EDT 8:44 PM EDT
Moon 2:50 PM EDT (9/13) 1:00 AM EDT (9/13)
Length of Visible Light 13h 06m
Length of Day
12h 20m
First Quarter, 61% of the Moon is Illuminated
Sep 13
First Quarter
Sep 19
Full
Sep 26
Last Quarter
Oct 4
New
Oct 11
First Quarter

Hourly Weather History & Observations

Time (EDT) Temp. Heat Index Dew Point Humidity Pressure Visibility Wind Dir Wind Speed Gust Speed Precip Events Conditions
12:58 AM 77.2 °F - 74.5 °F 91% 29.90 in 10.0 mi SE 2.3 mph - N/A   Clear
1:58 AM 77.7 °F - 74.1 °F 89% 29.90 in 10.0 mi NNW 3.5 mph - N/A   Clear
2:58 AM 76.8 °F - 74.1 °F 91% 29.89 in 10.0 mi Variable 3.5 mph - N/A   Clear
3:58 AM 75.9 °F - 73.0 °F 91% 29.88 in 10.0 mi North 5.8 mph - N/A   Clear
4:58 AM 76.1 °F - 73.0 °F 90% 29.88 in 10.0 mi NNE 4.6 mph - N/A   Clear
5:58 AM 75.6 °F - 73.4 °F 93% 29.89 in 10.0 mi NNE 3.5 mph - N/A   Clear
6:58 AM 75.0 °F - 73.8 °F 96% 29.91 in 10.0 mi NNW 2.3 mph - N/A   Clear
7:58 AM 75.2 °F - 74.8 °F 99% 29.91 in 4.0 mi WSW 1.2 mph - N/A   Clear
8:58 AM 79.3 °F - 76.1 °F 90% 29.92 in 10.0 mi NNW 1.2 mph - N/A   Clear
9:58 AM 82.9 °F 90.5 °F 75.4 °F 78% 29.92 in 10.0 mi Calm Calm - N/A   Clear
10:58 AM 84.7 °F 92.5 °F 74.3 °F 71% 29.92 in 10.0 mi South 2.3 mph - N/A   Clear
11:58 AM 84.9 °F 92.5 °F 74.1 °F 70% 29.91 in 10.0 mi ENE 4.6 mph - N/A   Clear
12:39 PM 87.8 °F 97.6 °F 75.2 °F 66% 29.90 in 10.0 mi ESE 8.1 mph - N/A   Light Drizzle
12:48 PM 87.8 °F 97.6 °F 75.2 °F 66% 29.89 in 10.0 mi Variable 6.9 mph - N/A   Clear
12:58 PM 87.8 °F 97.1 °F 74.8 °F 65% 29.90 in 10.0 mi ENE 8.1 mph - 0.00 in   Clear
1:58 PM 88.0 °F 96.0 °F 73.4 °F 62% 29.88 in 10.0 mi ESE 10.4 mph - N/A   Clear
2:58 PM 88.9 °F 96.6 °F 72.9 °F 59% 29.86 in 10.0 mi ESE 8.1 mph - N/A   Clear
3:58 PM 87.3 °F 95.8 °F 74.1 °F 65% 29.84 in 10.0 mi East 4.6 mph - N/A   Clear
4:58 PM 87.8 °F 97.1 °F 74.8 °F 65% 29.83 in 10.0 mi SSE 6.9 mph - N/A   Clear
5:58 PM 83.7 °F 91.0 °F 74.5 °F 74% 29.83 in 10.0 mi SE 4.6 mph - N/A   Clear
6:58 PM 82.8 °F 89.8 °F 75.0 °F 77% 29.84 in 10.0 mi SE 3.5 mph - N/A   Clear
7:58 PM 80.8 °F 86.5 °F 75.2 °F 83% 29.85 in 10.0 mi East 2.3 mph - N/A   Clear
8:58 PM 80.8 °F 86.9 °F 75.9 °F 85% 29.87 in 10.0 mi SE 2.3 mph - N/A   Clear
9:58 PM 79.9 °F - 75.6 °F 87% 29.89 in 10.0 mi Calm Calm - N/A   Clear
10:03 PM 80.6 °F 87.1 °F 77.0 °F 89% 29.88 in 9.0 mi Calm Calm - N/A   Clear
10:13 PM 78.8 °F - 75.2 °F 89% 29.88 in 10.0 mi WSW 1.2 mph - N/A   Clear
10:58 PM 78.8 °F - 75.4 °F 89% 29.90 in 10.0 mi WSW 2.3 mph - N/A   Partly Cloudy
11:58 PM 77.9 °F - 75.6 °F 92% 29.89 in 10.0 mi SW 2.3 mph - N/A   Clear